| time (UTC) | temp F | wind direction | speed MPH | gust MPH | rain 1hr in | rain 24hr in | rain mn in | humidity % | barometer mb |
| 20260503192546 | 78 | 206 | 8.0 | 9.0 | 0.00 | 0.00 | 0.00 | 40 | 1012.7 |
| 20260503192042 | 78 | 180 | 7.0 | 9.0 | 0.00 | 0.00 | 0.00 | 46 | 1012.7 |
| 20260503191539 | 78 | 262 | 5.0 | 7.0 | 0.00 | 0.00 | 0.00 | 46 | 1012.7 |
| 20260503191036 | 78 | 217 | 6.0 | 7.0 | 0.00 | 0.00 | 0.00 | 45 | 1013.1 |
| 20260503190533 | 78 | 252 | 7.0 | 8.0 | 0.00 | 0.00 | 0.00 | 43 | 1013.2 |
| 20260503190030 | 78 | 196 | 7.0 | 8.0 | 0.00 | 0.00 | 0.00 | 42 | 1013.2 |
| 20260503185527 | 77 | 229 | 6.0 | 7.0 | 0.00 | 0.00 | 0.00 | 43 | 1013.1 |
| 20260503185026 | 77 | 183 | 8.0 | 9.0 | 0.00 | 0.00 | 0.00 | 45 | 1013.4 |
| 20260503184523 | 77 | 192 | 5.0 | 7.0 | 0.00 | 0.00 | 0.00 | 46 | 1013.4 |
| 20260503184020 | 77 | 203 | 7.0 | 8.0 | 0.00 | 0.00 | 0.00 | 46 | 1013.5 |
| 20260503183516 | 76 | 192 | 7.0 | 9.0 | 0.00 | 0.00 | 0.00 | 48 | 1013.6 |
| 20260503183013 | 76 | 259 | 9.0 | 13.0 | 0.00 | 0.00 | 0.00 | 44 | 1013.7 |
| 20260503182512 | 76 | 217 | 5.0 | 6.0 | 0.00 | 0.00 | 0.00 | 45 | 1013.8 |
| 20260503182009 | 76 | 144 | 6.0 | 7.0 | 0.00 | 0.00 | 0.00 | 48 | 1014.0 |
| 20260503181506 | 75 | 225 | 6.0 | 7.0 | 0.00 | 0.00 | 0.00 | 45 | 1013.8 |
| 20260503181002 | 75 | 197 | 6.0 | 6.0 | 0.00 | 0.00 | 0.00 | 46 | 1014.0 |
| 20260503180500 | 75 | 223 | 8.0 | 10.0 | 0.00 | 0.00 | 0.00 | 46 | 1014.2 |
| 20260503175956 | 75 | 231 | 7.0 | 8.0 | 0.00 | 0.00 | 0.00 | 46 | 1014.5 |
| 20260503175455 | 74 | 226 | 5.0 | 6.0 | 0.00 | 0.00 | 0.00 | 50 | 1014.7 |
| 20260503174950 | 74 | 243 | 9.0 | 10.0 | 0.00 | 0.00 | 0.00 | 45 | 1014.6 |
| 20260503174449 | 74 | 206 | 13.0 | 16.0 | 0.00 | 0.00 | 0.00 | 43 | 1014.8 |
| 20260503173944 | 74 | 233 | 6.0 | 7.0 | 0.00 | 0.00 | 0.00 | 46 | 1014.9 |
| 20260503173440 | 74 | 230 | 4.0 | 5.0 | 0.00 | 0.00 | 0.00 | 46 | 1015.0 |
| 20260503172937 | 74 | 216 | 5.0 | 6.0 | 0.00 | 0.00 | 0.00 | 47 | 1015.0 |
| 20260503172435 | 74 | 233 | 6.0 | 7.0 | 0.00 | 0.00 | 0.00 | 45 | 1015.0 |
| 20260503171931 | 73 | 222 | 7.0 | 9.0 | 0.00 | 0.00 | 0.00 | 44 | 1015.1 |
| 20260503171428 | 73 | 202 | 7.0 | 8.0 | 0.00 | 0.00 | 0.00 | 45 | 1015.2 |
| 20260503170925 | 73 | 187 | 7.0 | 9.0 | 0.00 | 0.00 | 0.00 | 43 | 1015.1 |
| 20260503170421 | 72 | 199 | 9.0 | 10.0 | 0.00 | 0.00 | 0.00 | 44 | 1015.3 |
| 20260503150814 | 65 | 180 | 3.0 | 3.0 | 0.00 | 0.00 | 0.00 | 52 | 1017.4 |
| 20260503150309 | 64 | 198 | 5.0 | 5.0 | 0.00 | 0.00 | 0.00 | 52 | 1017.9 |
| 20260503140234 | 59 | 194 | 7.0 | 8.0 | 0.00 | 0.00 | 0.00 | 59 | 1018.5 |
| 20260503131204 | 53 | 156 | 4.0 | 5.0 | 0.00 | 0.00 | 0.00 | 69 | 1018.5 |
| 20260503130701 | 52 | 197 | 3.0 | 3.0 | 0.00 | 0.00 | 0.00 | 69 | 1018.7 |
| 20260503130158 | 52 | 199 | 2.0 | 2.0 | 0.00 | 0.00 | 0.00 | 72 | 1018.8 |
| 20260503120124 | 42 | 65 | 1.0 | 1.0 | 0.00 | 0.00 | 0.00 | 96 | 1019.0 |
| 20260503110551 | 41 | 27 | 0.0 | 0.0 | 0.00 | 0.00 | 0.00 | 96 | 1018.9 |
| 20260503090438 | 42 | 140 | 0.0 | 0.0 | 0.00 | 0.00 | 0.00 | 97 | 1019.4 |
| 20260503081405 | 43 | 126 | 0.0 | 0.0 | 0.00 | 0.00 | 0.00 | 97 | 1019.4 |
| 20260503080902 | 43 | 128 | 0.0 | 0.0 | 0.00 | 0.00 | 0.00 | 97 | 1019.5 |
| 20260503080358 | 43 | 100 | 1.0 | 1.0 | 0.00 | 0.00 | 0.00 | 97 | 1019.3 |
| 20260503072835 | 44 | 117 | 1.0 | 1.0 | 0.00 | 0.00 | 0.00 | 96 | 1019.6 |
| 20260503072332 | 44 | 90 | 0.0 | 0.0 | 0.00 | 0.00 | 0.00 | 96 | 1019.7 |
| 20260503071828 | 44 | 111 | 0.0 | 0.0 | 0.00 | 0.00 | 0.00 | 96 | 1019.7 |
| 20260503071325 | 44 | 142 | 0.0 | 0.0 | 0.00 | 0.00 | 0.00 | 96 | 1019.6 |
| 20260503070821 | 44 | 176 | 0.0 | 0.0 | 0.00 | 0.00 | 0.00 | 96 | 1019.7 |
| 20260503070320 | 44 | 121 | 0.0 | 0.0 | 0.00 | 0.00 | 0.00 | 96 | 1020.0 |
| 20260503060233 | 45 | 155 | 0.0 | 0.0 | 0.00 | 0.00 | 0.00 | 95 | 1020.3 |
| 20260503054720 | 45 | 164 | 0.0 | 0.0 | 0.00 | 0.00 | 0.00 | 95 | 1020.7 |
| 20260503054217 | 45 | 156 | 0.0 | 0.0 | 0.00 | 0.00 | 0.00 | 94 | 1020.5 |
| 20260503053715 | 45 | 139 | 0.0 | 0.0 | 0.00 | 0.00 | 0.00 | 94 | 1020.6 |
| 20260503053213 | 45 | 119 | 0.0 | 0.0 | 0.00 | 0.00 | 0.00 | 94 | 1020.6 |
| 20260503052709 | 45 | 156 | 0.0 | 0.0 | 0.00 | 0.00 | 0.00 | 94 | 1020.7 |
| 20260503052206 | 45 | 200 | 0.0 | 0.0 | 0.00 | 0.00 | 0.00 | 94 | 1020.6 |
| 20260503051701 | 45 | 289 | 1.0 | 1.0 | 0.00 | 0.00 | 0.00 | 94 | 1020.7 |
| 20260503051159 | 45 | 276 | 1.0 | 1.0 | 0.00 | 0.00 | 0.00 | 93 | 1020.6 |
| 20260503050655 | 45 | 229 | 1.0 | 1.0 | 0.00 | 0.00 | 0.00 | 93 | 1020.5 |
| 20260503050152 | 46 | 174 | 0.0 | 0.0 | 0.00 | 0.00 | 0.00 | 93 | 1020.5 |
| 20260503045649 | 45 | 114 | 1.0 | 1.0 | 0.00 | 0.00 | 0.00 | 93 | 1020.7 |
| 20260503045147 | 46 | 102 | 1.0 | 1.0 | 0.00 | 0.00 | 0.00 | 92 | 1020.5 |
| 20260503044643 | 46 | 166 | 0.0 | 0.0 | 0.00 | 0.00 | 0.00 | 92 | 1020.7 |
| 20260503044141 | 46 | 125 | 1.0 | 1.0 | 0.00 | 0.00 | 0.00 | 92 | 1020.6 |
| 20260503043637 | 46 | 153 | 0.0 | 0.0 | 0.00 | 0.00 | 0.00 | 91 | 1020.6 |
| 20260503043134 | 46 | 165 | 0.0 | 0.0 | 0.00 | 0.00 | 0.00 | 91 | 1020.8 |
| 20260503042631 | 47 | 126 | 1.0 | 1.0 | 0.00 | 0.00 | 0.00 | 91 | 1020.6 |
| 20260503042127 | 47 | 139 | 1.0 | 1.0 | 0.00 | 0.00 | 0.00 | 91 | 1020.5 |
| 20260503041623 | 47 | 164 | 0.0 | 0.0 | 0.00 | 0.00 | 0.00 | 90 | 1020.5 |
| 20260503041121 | 47 | 148 | 0.0 | 1.0 | 0.00 | 0.00 | 0.00 | 90 | 1020.5 |
| 20260503040618 | 47 | 122 | 1.0 | 1.0 | 0.00 | 0.00 | 0.00 | 89 | 1020.6 |
| 20260503040116 | 47 | 106 | 1.0 | 1.0 | 0.00 | 0.00 | 0.00 | 88 | 1020.7 |
| 20260503035612 | 47 | 138 | 1.0 | 1.0 | 0.00 | 0.00 | 0.00 | 88 | 1020.7 |
| 20260503035110 | 47 | 164 | 0.0 | 0.0 | 0.00 | 0.00 | 0.00 | 87 | 1020.6 |
| 20260503034607 | 48 | 126 | 1.0 | 1.0 | 0.00 | 0.00 | 0.00 | 87 | 1020.7 |
| 20260503034104 | 47 | 159 | 0.0 | 0.0 | 0.00 | 0.00 | 0.00 | 86 | 1020.7 |
| 20260503033601 | 48 | 150 | 1.0 | 1.0 | 0.00 | 0.00 | 0.00 | 86 | 1020.8 |
| 20260503033059 | 48 | 135 | 1.0 | 1.0 | 0.00 | 0.00 | 0.00 | 86 | 1020.8 |
| 20260503032557 | 48 | 142 | 1.0 | 1.0 | 0.00 | 0.00 | 0.00 | 86 | 1020.8 |
| 20260503032055 | 48 | 139 | 1.0 | 1.0 | 0.00 | 0.00 | 0.00 | 85 | 1020.7 |
| 20260503031552 | 48 | 132 | 1.0 | 1.0 | 0.00 | 0.00 | 0.00 | 85 | 1020.7 |
| 20260503031050 | 49 | 145 | 1.0 | 1.0 | 0.00 | 0.00 | 0.00 | 84 | 1020.9 |
| 20260503030545 | 49 | 151 | 0.0 | 0.0 | 0.00 | 0.00 | 0.00 | 83 | 1020.9 |
| 20260503030043 | 49 | 84 | 1.0 | 1.0 | 0.00 | 0.00 | 0.00 | 82 | 1020.7 |
| 20260503025539 | 49 | 106 | 1.0 | 1.0 | 0.00 | 0.00 | 0.00 | 80 | 1020.5 |
| 20260503025037 | 49 | 163 | 0.0 | 0.0 | 0.00 | 0.00 | 0.00 | 80 | 1020.5 |
| 20260503024533 | 50 | 114 | 1.0 | 1.0 | 0.00 | 0.00 | 0.00 | 79 | 1020.5 |
| 20260503024031 | 50 | 65 | 1.0 | 1.0 | 0.00 | 0.00 | 0.00 | 77 | 1020.6 |
| 20260503023527 | 50 | 120 | 1.0 | 1.0 | 0.00 | 0.00 | 0.00 | 75 | 1020.3 |
| 20260503023025 | 50 | 155 | 0.0 | 0.0 | 0.00 | 0.00 | 0.00 | 74 | 1020.6 |
| 20260503022521 | 50 | 163 | 0.0 | 0.0 | 0.00 | 0.00 | 0.00 | 74 | 1020.1 |
| 20260503022015 | 50 | 56 | 0.0 | 0.0 | 0.00 | 0.00 | 0.00 | 73 | 1020.2 |
| 20260503021512 | 50 | 66 | 0.0 | 0.0 | 0.00 | 0.00 | 0.00 | 70 | 1020.2 |
| 20260503021009 | 50 | 70 | 0.0 | 0.0 | 0.00 | 0.00 | 0.00 | 69 | 1020.0 |
| 20260503020507 | 51 | 94 | 0.0 | 0.0 | 0.00 | 0.00 | 0.00 | 68 | 1020.0 |
| 20260503020003 | 51 | 35 | 0.0 | 0.0 | 0.00 | 0.00 | 0.00 | 65 | 1020.0 |
| 20260503015459 | 52 | 89 | 0.0 | 0.0 | 0.00 | 0.00 | 0.00 | 65 | 1019.9 |
| 20260503014955 | 52 | 159 | 0.0 | 0.0 | 0.00 | 0.00 | 0.00 | 65 | 1019.9 |
| 20260503014452 | 52 | 125 | 1.0 | 1.0 | 0.00 | 0.00 | 0.00 | 65 | 1019.9 |
| 20260503013950 | 53 | 152 | 0.0 | 0.0 | 0.00 | 0.00 | 0.00 | 62 | 1019.8 |
| 20260503013442 | 53 | 36 | 1.0 | 1.0 | 0.00 | 0.00 | 0.00 | 61 | 1019.8 |
| 20260503012939 | 53 | 71 | 0.0 | 0.0 | 0.00 | 0.00 | 0.00 | 59 | 1020.0 |
| 20260503012438 | 54 | 148 | 0.0 | 0.0 | 0.00 | 0.00 | 0.00 | 59 | 1019.8 |
| 20260503011933 | 54 | 140 | 1.0 | 1.0 | 0.00 | 0.00 | 0.00 | 54 | 1019.8 |
| 20260503011430 | 55 | 81 | 0.0 | 1.0 | 0.00 | 0.00 | 0.00 | 59 | 1019.6 |
| 20260503010927 | 55 | 92 | 0.0 | 1.0 | 0.00 | 0.00 | 0.00 | 57 | 1019.7 |
| 20260503010423 | 56 | 33 | 1.0 | 2.0 | 0.00 | 0.00 | 0.00 | 56 | 1019.5 |
| 20260503005920 | 57 | 56 | 1.0 | 1.0 | 0.00 | 0.00 | 0.00 | 53 | 1019.7 |
| 20260503005413 | 58 | 35 | 1.0 | 2.0 | 0.00 | 0.00 | 0.00 | 54 | 1019.4 |
| 20260503004909 | 59 | 50 | 1.0 | 1.0 | 0.00 | 0.00 | 0.00 | 51 | 1019.6 |
| 20260503004406 | 61 | 313 | 1.0 | 1.0 | 0.00 | 0.00 | 0.00 | 49 | 1019.7 |
| 20260503003903 | 62 | 290 | 1.0 | 1.0 | 0.00 | 0.00 | 0.00 | 46 | 1019.7 |
| 20260503003359 | 61 | 228 | 1.0 | 1.0 | 0.00 | 0.00 | 0.00 | 40 | 1019.6 |
| 20260503002857 | 62 | 348 | 2.0 | 2.0 | 0.00 | 0.00 | 0.00 | 40 | 1019.4 |
| 20260503002355 | 62 | 242 | 2.0 | 2.0 | 0.00 | 0.00 | 0.00 | 36 | 1019.4 |
| 20260503001851 | 63 | 303 | 2.0 | 2.0 | 0.00 | 0.00 | 0.00 | 36 | 1019.5 |
| 20260503001347 | 63 | 275 | 2.0 | 2.0 | 0.00 | 0.00 | 0.00 | 36 | 1019.9 |
| 20260503000844 | 63 | 312 | 4.0 | 5.0 | 0.00 | 0.00 | 0.00 | 35 | 1019.6 |
| 20260503000341 | 63 | 295 | 3.0 | 3.0 | 0.00 | 0.00 | 0.00 | 35 | 1019.6 |
| 20260502235838 | 64 | 315 | 3.0 | 3.0 | 0.00 | 0.00 | 0.00 | 35 | 1019.5 |
| 20260502235335 | 63 | 305 | 2.0 | 2.0 | 0.00 | 0.00 | 0.00 | 37 | 1019.7 |
| 20260502234832 | 64 | 314 | 3.0 | 3.0 | 0.00 | 0.00 | 0.00 | 35 | 1019.6 |
| 20260502234329 | 63 | 344 | 4.0 | 5.0 | 0.00 | 0.00 | 0.00 | 36 | 1019.6 |
| 20260502233820 | 63 | 248 | 2.0 | 2.0 | 0.00 | 0.00 | 0.00 | 35 | 1019.6 |
| 20260502233317 | 63 | 342 | 6.0 | 7.0 | 0.00 | 0.00 | 0.00 | 35 | 1019.7 |
| 20260502232814 | 63 | 321 | 3.0 | 5.0 | 0.00 | 0.00 | 0.00 | 35 | 1019.7 |
| 20260502232310 | 62 | 329 | 3.0 | 3.0 | 0.00 | 0.00 | 0.00 | 37 | 1019.6 |
| 20260502231806 | 62 | 267 | 3.0 | 3.0 | 0.00 | 0.00 | 0.00 | 37 | 1019.7 |
| 20260502231304 | 62 | 313 | 4.0 | 5.0 | 0.00 | 0.00 | 0.00 | 37 | 1019.8 |
| 20260502230802 | 62 | 242 | 4.0 | 5.0 | 0.00 | 0.00 | 0.00 | 40 | 1019.9 |
| 20260502230300 | 63 | 231 | 1.0 | 1.0 | 0.00 | 0.00 | 0.00 | 38 | 1019.8 |
| 20260502225756 | 63 | 294 | 6.0 | 8.0 | 0.00 | 0.00 | 0.00 | 34 | 1020.0 |
| 20260502225253 | 62 | 256 | 3.0 | 3.0 | 0.00 | 0.00 | 0.00 | 38 | 1020.1 |
| 20260502224750 | 62 | 247 | 2.0 | 2.0 | 0.00 | 0.00 | 0.00 | 36 | 1019.7 |
| 20260502224246 | 63 | 304 | 5.0 | 6.0 | 0.00 | 0.00 | 0.00 | 35 | 1019.9 |
| 20260502223744 | 64 | 283 | 6.0 | 7.0 | 0.00 | 0.00 | 0.00 | 34 | 1019.7 |
| 20260502223242 | 63 | 276 | 3.0 | 3.0 | 0.00 | 0.00 | 0.00 | 34 | 1020.0 |
| 20260502222739 | 64 | 272 | 3.0 | 3.0 | 0.00 | 0.00 | 0.00 | 34 | 1019.8 |
| 20260502222236 | 64 | 322 | 5.0 | 6.0 | 0.00 | 0.00 | 0.00 | 33 | 1019.9 |
| 20260502221732 | 64 | 13 | 6.0 | 7.0 | 0.00 | 0.00 | 0.00 | 33 | 1019.8 |
| 20260502221229 | 64 | 358 | 6.0 | 7.0 | 0.00 | 0.00 | 0.00 | 33 | 1019.9 |
| 20260502220725 | 64 | 279 | 3.0 | 3.0 | 0.00 | 0.00 | 0.00 | 36 | 1019.9 |
| 20260502220221 | 64 | 243 | 4.0 | 5.0 | 0.00 | 0.00 | 0.00 | 38 | 1019.9 |
| 20260502215718 | 64 | 357 | 4.0 | 5.0 | 0.00 | 0.00 | 0.00 | 32 | 1019.7 |
| 20260502215215 | 64 | 6 | 4.0 | 6.0 | 0.00 | 0.00 | 0.00 | 32 | 1020.1 |
| 20260502214713 | 64 | 15 | 3.0 | 3.0 | 0.00 | 0.00 | 0.00 | 32 | 1019.8 |
| 20260502214210 | 65 | 314 | 7.0 | 8.0 | 0.00 | 0.00 | 0.00 | 33 | 1019.9 |
| 20260502213707 | 64 | 2 | 3.0 | 5.0 | 0.00 | 0.00 | 0.00 | 32 | 1019.9 |
| 20260502213204 | 64 | 242 | 5.0 | 7.0 | 0.00 | 0.00 | 0.00 | 40 | 1019.9 |
| 20260502212702 | 65 | 284 | 4.0 | 5.0 | 0.00 | 0.00 | 0.00 | 33 | 1020.0 |
| 20260502212155 | 65 | 98 | 1.0 | 1.0 | 0.00 | 0.00 | 0.00 | 34 | 1019.9 |
| 20260502211650 | 64 | 13 | 5.0 | 6.0 | 0.00 | 0.00 | 0.00 | 34 | 1020.2 |
| 20260502211148 | 63 | 296 | 3.0 | 3.0 | 0.00 | 0.00 | 0.00 | 33 | 1020.1 |
| 20260502210645 | 62 | 265 | 3.0 | 6.0 | 0.00 | 0.00 | 0.00 | 39 | 1020.2 |
| 20260502210141 | 62 | 213 | 0.0 | 0.0 | 0.00 | 0.00 | 0.00 | 36 | 1020.3 |
| 20260502205638 | 64 | 309 | 5.0 | 6.0 | 0.00 | 0.00 | 0.00 | 35 | 1020.5 |
| 20260502205135 | 64 | 5 | 5.0 | 8.0 | 0.00 | 0.00 | 0.00 | 33 | 1020.5 |
| 20260502204632 | 64 | 354 | 6.0 | 8.0 | 0.00 | 0.00 | 0.00 | 36 | 1020.3 |
| 20260502204129 | 64 | 295 | 4.0 | 5.0 | 0.00 | 0.00 | 0.00 | 36 | 1020.5 |
| 20260502203626 | 63 | 277 | 6.0 | 7.0 | 0.00 | 0.00 | 0.00 | 33 | 1020.5 |
| 20260502203124 | 63 | 320 | 7.0 | 8.0 | 0.00 | 0.00 | 0.00 | 34 | 1020.8 |
| 20260502202619 | 63 | 240 | 3.0 | 3.0 | 0.00 | 0.00 | 0.00 | 37 | 1020.7 |
| 20260502202117 | 63 | 282 | 3.0 | 3.0 | 0.00 | 0.00 | 0.00 | 35 | 1020.6 |
| 20260502201613 | 63 | 328 | 3.0 | 3.0 | 0.00 | 0.00 | 0.00 | 38 | 1020.9 |
| 20260502201104 | 63 | 322 | 3.0 | 6.0 | 0.00 | 0.00 | 0.00 | 37 | 1020.8 |
| 20260502200600 | 63 | 233 | 2.0 | 2.0 | 0.00 | 0.00 | 0.00 | 35 | 1021.0 |
| 20260502200058 | 63 | 292 | 5.0 | 6.0 | 0.00 | 0.00 | 0.00 | 34 | 1021.0 |
| 20260502195556 | 64 | 335 | 5.0 | 7.0 | 0.00 | 0.00 | 0.00 | 36 | 1020.9 |
| 20260502195051 | 62 | 275 | 1.0 | 2.0 | 0.00 | 0.00 | 0.00 | 34 | 1020.8 |
| 20260502194548 | 62 | 346 | 6.0 | 8.0 | 0.00 | 0.00 | 0.00 | 36 | 1021.1 |
| 20260502194044 | 62 | 330 | 6.0 | 7.0 | 0.00 | 0.00 | 0.00 | 37 | 1021.0 |
| 20260502193541 | 63 | 308 | 4.0 | 5.0 | 0.00 | 0.00 | 0.00 | 36 | 1021.2 |
| 20260502193033 | 63 | 291 | 4.0 | 5.0 | 0.00 | 0.00 | 0.00 | 44 | 1021.1 |